Location: Nag� el Ma?a??a
(24.0667°N, 32.8833°E)
Time: 17:00:33
(UTC+00:00)

Meteor 1-11 Rocket - Pass Details

Date: 25 September 2021
Orbit: 831 x 915 km, 81.2° (Epoch: 16 October)

Event Time Altitude Azimuth Distance (km) Brightness Sun altitude
Rises 01:56:27 0° 358° (N) 3,523 7.0 -23.9°
Reaches altitude 10° 01:58:58 10° 1° (N) 2,570 6.3 -23.4°
Maximum altitude 02:04:46 64° 82° (E) 972 4.2 -22.1°
Drops below altitude 10° 02:10:24 10° 164° (SSE) 2,505 6.2 -20.8°
Sets 02:12:50 0° 167° (SSE) 3,427 6.9 -20.2°
